"""""""Sample Date""""","""""Sample Time""""","""""Sensor Name""""","""""Sensor Type""""","""""Sensor S/N""""","""""Statistics""""","""""Loc Chg""""","""""Location""""","""""Manifold""""","""""Laser OK""""","""""Flow OK""""","""""<5% Coinc.""""","""""Sample Valid""""","""""Sample Interval""""","""""Volume Units""""","""""Sample Volume""""","""""Number Channels""""","""""Size 1""""","""""Counts 1""""","""""Size 2""""","""""Counts 2""""","""""Size 3""""","""""Counts 3""""","""""Size 4""""","""""Counts 4""""","""""Size 5""""","""""Counts 5""""","""""Size 6""""","""""Counts 6""""","""""Number Analog""""","""""Name 1""""","""""Units 1""""","""""Avg 1""""","""""Min 1 """"","""""Max 1""""","""""Name 2""""","""""Units 2""""","""""Avg 2""""","""""Min 2 """"","""""Max 2""""","""""Name 3""""","""""Units 3""""","""""Avg 3""""","""""Min 3 """"","""""Max 3""""","""""Name 4""""","""""Units 4""""","""""Avg 4""""","""""Min 4 """"","""""Max 4""""","""""Name 5""""","""""Units 5""""","""""Avg 5""""","""""Min 5 """"","""""Max 5""""","""""Name 6""""","""""Units 6""""","""""Avg 6""""","""""Min 6 """"","""""Max 6"""""""
"""2005/01/15",0:00:52,"""""Lasair TWO""""","""""LasairII-110""""",36043,"""""""""",.,"""""RICO""""",0,1,1,0,0,0:01:00,CM,0.02832,6,0.1,1504124,0.2,3059,0.3,0,0.5,0,1,0,5,0,"0""",,,,,,,,,,,,,,,,,,,,,,,,,,,,,,
"""2005/01/15",0:01:52,"""""Lasair TWO""""","""""LasairII-110""""",36043,"""""""""",.,"""""RICO""""",0,1,1,0,0,0:01:00,CM,0.02831,6,0.1,1496531,0.2,3062,0.3,0,0.5,0,1,0,5,0,"0""",,,,,,,,,,,,,,,,,,,,,,,,,,,,,,
"""2005/01/15",0:02:52,"""""Lasair TWO""""","""""LasairII-110""""",36043,"""""""""",.,"""""RICO""""",0,1,1,0,0,0:01:00,CM,0.02831,6,0.1,1481385,0.2,3091,0.3,0,0.5,0,1,0,5,0,"0""",,,,,,,,,,,,,,,,,,,,,,,,,,,,,,
"""2005/01/15",0:03:52,"""""Lasair TWO""""","""""LasairII-110""""",36043,"""""""""",.,"""""RICO""""",0,1,1,0,0,0:01:00,CM,0.02831,6,0.1,1482865,0.2,3259,0.3,0,0.5,0,1,0,5,0,"0""",,,,,,,,,,,,,,,,,,,,,,,,,,,,,,
"""2005/01/15",0:04:52,"""""Lasair TWO""""","""""LasairII-110""""",36043,"""""""""",.,"""""RICO""""",0,1,1,0,0,0:01:00,CM,0.02833,6,0.1,1484168,0.2,3063,0.3,0,0.5,0,1,0,5,0,"0""",,,,,,,,,,,,,,,,,,,,,,,,,,,,,,
"""2005/01/15",0:05:52,"""""Lasair TWO""""","""""LasairII-110""""",36043,"""""""""",.,"""""RICO""""",0,1,1,0,0,0:01:00,CM,0.02832,6,0.1,1513236,0.2,2985,0.3,0,0.5,0,1,0,5,0,"0""",,,,,,,,,,,,,,,,,,,,,,,,,,,,,,
"""2005/01/15",0:06:52,"""""Lasair TWO""""","""""LasairII-110""""",36043,"""""""""",.,"""""RICO""""",0,1,1,0,0,0:01:00,CM,0.02832,6,0.1,1551050,0.2,3146,0.3,0,0.5,0,1,0,5,0,"0""",,,,,,,,,,,,,,,,,,,,,,,,,,,,,,
"""2005/01/15",0:07:52,"""""Lasair TWO""""","""""LasairII-110""""",36043,"""""""""",.,"""""RICO""""",0,1,1,0,0,0:01:00,CM,0.02832,6,0.1,1598624,0.2,5189,0.3,0,0.5,0,1,0,5,0,"0""",,,,,,,,,,,,,,,,,,,,,,,,,,,,,,
"""2005/01/15",0:08:52,"""""Lasair TWO""""","""""LasairII-110""""",36043,"""""""""",.,"""""RICO""""",0,1,1,0,0,0:01:00,CM,0.02833,6,0.1,1576998,0.2,4608,0.3,0,0.5,0,1,0,5,0,"0""",,,,,,,,,,,,,,,,,,,,,,,,,,,,,,
"""2005/01/15",0:09:52,"""""Lasair TWO""""","""""LasairII-110""""",36043,"""""""""",.,"""""RICO""""",0,1,1,0,0,0:01:00,CM,0.02832,6,0.1,1541776,0.2,3563,0.3,0,0.5,0,1,0,5,0,"0""",,,,,,,,,,,,,,,,,,,,,,,,,,,,,,
"""2005/01/15",0:10:52,"""""Lasair TWO""""","""""LasairII-110""""",36043,"""""""""",.,"""""RICO""""",0,1,1,0,0,0:01:00,CM,0.02831,6,0.1,1559007,0.2,3175,0.3,0,0.5,0,1,0,5,0,"0""",,,,,,,,,,,,,,,,,,,,,,,,,,,,,,
"""2005/01/15",0:11:52,"""""Lasair TWO""""","""""LasairII-110""""",36043,"""""""""",.,"""""RICO""""",0,1,1,0,0,0:01:00,CM,0.02831,6,0.1,1699283,0.2,3035,0.3,0,0.5,0,1,0,5,0,"0""",,,,,,,,,,,,,,,,,,,,,,,,,,,,,,
"""2005/01/15",0:12:52,"""""Lasair TWO""""","""""LasairII-110""""",36043,"""""""""",.,"""""RICO""""",0,1,1,0,0,0:01:00,CM,0.02831,6,0.1,1970828,0.2,2724,0.3,0,0.5,0,1,0,5,0,"0""",,,,,,,,,,,,,,,,,,,,,,,,,,,,,,
"""2005/01/15",0:13:52,"""""Lasair TWO""""","""""LasairII-110""""",36043,"""""""""",.,"""""RICO""""",0,1,1,0,0,0:01:00,CM,0.02832,6,0.1,2093433,0.2,3342,0.3,0,0.5,0,1,0,5,0,"0""",,,,,,,,,,,,,,,,,,,,,,,,,,,,,,
"""2005/01/15",0:14:52,"""""Lasair TWO""""","""""LasairII-110""""",36043,"""""""""",.,"""""RICO""""",0,1,1,0,0,0:01:00,CM,0.02832,6,0.1,2458163,0.2,4212,0.3,0,0.5,0,1,0,5,0,"0""",,,,,,,,,,,,,,,,,,,,,,,,,,,,,,
"""2005/01/15",0:15:52,"""""Lasair TWO""""","""""LasairII-110""""",36043,"""""""""",.,"""""RICO""""",0,1,1,0,0,0:01:00,CM,0.02832,6,0.1,2644139,0.2,3335,0.3,0,0.5,0,1,0,5,0,"0"""
"""2005/01/15",0:16:52,"""""Lasair TWO""""","""""LasairII-110""""",36043,"""""""""",.,"""""RICO""""",0,1,1,0,0,0:01:00,CM,0.02832,6,0.1,2619391,0.2,2760,0.3,0,0.5,0,1,0,5,0,"0"""
"""2005/01/15",0:17:52,"""""Lasair TWO""""","""""LasairII-110""""",36043,"""""""""",.,"""""RICO""""",0,1,1,0,0,0:01:00,CM,0.02832,6,0.1,2414862,0.2,2414,0.3,0,0.5,0,1,0,5,0,"0"""
"""2005/01/15",0:18:52,"""""Lasair TWO""""","""""LasairII-110""""",36043,"""""""""",.,"""""RICO""""",0,1,1,0,0,0:01:00,CM,0.02832,6,0.1,2231991,0.2,2231,0.3,0,0.5,0,1,0,5,0,"0"""
"""2005/01/15",0:19:52,"""""Lasair TWO""""","""""LasairII-110""""",36043,"""""""""",.,"""""RICO""""",0,1,1,0,0,0:01:00,CM,0.02833,6,0.1,2103698,0.2,1922,0.3,0,0.5,0,1,0,5,0,"0"""
"""2005/01/15",0:20:52,"""""Lasair TWO""""","""""LasairII-110""""",36043,"""""""""",.,"""""RICO""""",0,1,1,0,0,0:01:00,CM,0.0283,6,0.1,1974090,0.2,1931,0.3,0,0.5,0,1,0,5,0,"0"""
"""2005/01/15",0:21:52,"""""Lasair TWO""""","""""LasairII-110""""",36043,"""""""""",.,"""""RICO""""",0,1,1,0,0,0:01:00,CM,0.02832,6,0.1,1917676,0.2,2140,0.3,0,0.5,0,1,0,5,0,"0"""
"""2005/01/15",0:22:52,"""""Lasair TWO""""","""""LasairII-110""""",36043,"""""""""",.,"""""RICO""""",0,1,1,0,0,0:01:00,CM,0.02832,6,0.1,1940590,0.2,2196,0.3,0,0.5,0,1,0,5,0,"0"""
"""2005/01/15",0:23:52,"""""Lasair TWO""""","""""LasairII-110""""",36043,"""""""""",.,"""""RICO""""",0,1,1,0,0,0:01:00,CM,0.02832,6,0.1,2082687,0.2,2158,0.3,0,0.5,0,1,0,5,0,"0"""
"""2005/01/15",0:24:52,"""""Lasair TWO""""","""""LasairII-110""""",36043,"""""""""",.,"""""RICO""""",0,1,1,0,0,0:01:00,CM,0.02831,6,0.1,1994382,0.2,1903,0.3,0,0.5,0,1,0,5,0,"0"""
"""2005/01/15",0:25:52,"""""Lasair TWO""""","""""LasairII-110""""",36043,"""""""""",.,"""""RICO""""",0,1,1,0,0,0:01:00,CM,0.02831,6,0.1,2301308,0.2,2076,0.3,0,0.5,0,1,0,5,0,"0"""
"""2005/01/15",0:26:52,"""""Lasair TWO""""","""""LasairII-110""""",36043,"""""""""",.,"""""RICO""""",0,1,1,0,0,0:01:00,CM,0.02831,6,0.1,3241247,0.2,2373,0.3,0,0.5,0,1,0,5,0,"0"""
"""2005/01/15",0:27:52,"""""Lasair TWO""""","""""LasairII-110""""",36043,"""""""""",.,"""""RICO""""",0,1,1,0,0,0:01:00,CM,0.02833,6,0.1,3231391,0.2,2512,0.3,0,0.5,0,1,0,5,0,"0"""
"""2005/01/15",0:28:52,"""""Lasair TWO""""","""""LasairII-110""""",36043,"""""""""",.,"""""RICO""""",0,1,1,0,0,0:01:00,CM,0.02831,6,0.1,2967740,0.2,2548,0.3,0,0.5,0,1,0,5,0,"0"""
"""2005/01/15",0:29:52,"""""Lasair TWO""""","""""LasairII-110""""",36043,"""""""""",.,"""""RICO""""",0,1,1,0,0,0:01:00,CM,0.02832,6,0.1,2665734,0.2,2574,0.3,0,0.5,0,1,0,5,0,"0"""
"""2005/01/15",0:30:52,"""""Lasair TWO""""","""""LasairII-110""""",36043,"""""""""",.,"""""RICO""""",0,1,1,0,0,0:01:00,CM,0.02832,6,0.1,2402645,0.2,3646,0.3,0,0.5,0,1,0,5,0,"0"""
"""2005/01/15",0:31:52,"""""Lasair TWO""""","""""LasairII-110""""",36043,"""""""""",.,"""""RICO""""",0,1,1,0,0,0:01:00,CM,0.02831,6,0.1,2264672,0.2,3373,0.3,0,0.5,0,1,0,5,0,"0"""
"""2005/01/15",0:32:52,"""""Lasair TWO""""","""""LasairII-110""""",36043,"""""""""",.,"""""RICO""""",0,1,1,0,0,0:01:00,CM,0.02831,6,0.1,2112075,0.2,2774,0.3,0,0.5,0,1,0,5,0,"0"""
"""2005/01/15",0:33:52,"""""Lasair TWO""""","""""LasairII-110""""",36043,"""""""""",.,"""""RICO""""",0,1,1,0,0,0:01:00,CM,0.02832,6,0.1,2100820,0.2,3859,0.3,0,0.5,0,1,0,5,0,"0"""
"""2005/01/15",0:34:52,"""""Lasair TWO""""","""""LasairII-110""""",36043,"""""""""",.,"""""RICO""""",0,1,1,0,0,0:01:00,CM,0.02833,6,0.1,2354670,0.2,5184,0.3,0,0.5,0,1,0,5,0,"0"""
"""2005/01/15",0:35:52,"""""Lasair TWO""""","""""LasairII-110""""",36043,"""""""""",.,"""""RICO""""",0,1,1,0,0,0:01:00,CM,0.02831,6,0.1,2536055,0.2,3900,0.3,0,0.5,0,1,0,5,0,"0"""
"""2005/01/15",0:36:52,"""""Lasair TWO""""","""""LasairII-110""""",36043,"""""""""",.,"""""RICO""""",0,1,1,0,0,0:01:00,CM,0.02832,6,0.1,2498811,0.2,3149,0.3,0,0.5,0,1,0,5,0,"0"""
"""2005/01/15",0:37:52,"""""Lasair TWO""""","""""LasairII-110""""",36043,"""""""""",.,"""""RICO""""",0,1,1,0,0,0:01:00,CM,0.02831,6,0.1,2431007,0.2,2624,0.3,0,0.5,0,1,0,5,0,"0"""
"""2005/01/15",0:38:52,"""""Lasair TWO""""","""""LasairII-110""""",36043,"""""""""",.,"""""RICO""""",0,1,1,0,0,0:01:00,CM,0.02832,6,0.1,2382690,0.2,2356,0.3,0,0.5,0,1,0,5,0,"0"""
"""2005/01/15",0:39:52,"""""Lasair TWO""""","""""LasairII-110""""",36043,"""""""""",.,"""""RICO""""",0,1,1,0,0,0:01:00,CM,0.02832,6,0.1,2202175,0.2,2503,0.3,0,0.5,0,1,0,5,0,"0"""
"""2005/01/15",0:40:52,"""""Lasair TWO""""","""""LasairII-110""""",36043,"""""""""",.,"""""RICO""""",0,1,1,0,0,0:01:00,CM,0.02832,6,0.1,2151606,0.2,3720,0.3,0,0.5,0,1,0,5,0,"0"""
"""2005/01/15",0:41:52,"""""Lasair TWO""""","""""LasairII-110""""",36043,"""""""""",.,"""""RICO""""",0,1,1,0,0,0:01:00,CM,0.02833,6,0.1,2091209,0.2,4638,0.3,0,0.5,0,1,0,5,0,"0"""
"""2005/01/15",0:42:52,"""""Lasair TWO""""","""""LasairII-110""""",36043,"""""""""",.,"""""RICO""""",0,1,1,0,0,0:01:00,CM,0.02831,6,0.1,2023914,0.2,5260,0.3,0,0.5,0,1,0,5,0,"0"""
"""2005/01/15",0:43:52,"""""Lasair TWO""""","""""LasairII-110""""",36043,"""""""""",.,"""""RICO""""",0,1,1,0,0,0:01:00,CM,0.02832,6,0.1,1922937,0.2,6496,0.3,0,0.5,0,1,0,5,0,"0"""
"""2005/01/15",0:44:52,"""""Lasair TWO""""","""""LasairII-110""""",36043,"""""""""",.,"""""RICO""""",0,1,1,0,0,0:01:00,CM,0.02831,6,0.1,1855557,0.2,7302,0.3,0,0.5,0,1,0,5,0,"0"""
"""2005/01/15",0:45:52,"""""Lasair TWO""""","""""LasairII-110""""",36043,"""""""""",.,"""""RICO""""",0,1,1,0,0,0:01:00,CM,0.02833,6,0.1,1816504,0.2,9008,0.3,0,0.5,0,1,0,5,0,"0"""
"""2005/01/15",0:46:52,"""""Lasair TWO""""","""""LasairII-110""""",36043,"""""""""",.,"""""RICO""""",0,1,1,0,0,0:01:00,CM,0.02831,6,0.1,1763506,0.2,8882,0.3,0,0.5,0,1,0,5,0,"0"""
"""2005/01/15",0:47:52,"""""Lasair TWO""""","""""LasairII-110""""",36043,"""""""""",.,"""""RICO""""",0,1,1,0,0,0:01:00,CM,0.02832,6,0.1,1741643,0.2,9211,0.3,0,0.5,0,1,0,5,0,"0"""
"""2005/01/15",0:48:52,"""""Lasair TWO""""","""""LasairII-110""""",36043,"""""""""",.,"""""RICO""""",0,1,1,0,0,0:01:00,CM,0.02831,6,0.1,1735094,0.2,8825,0.3,0,0.5,0,1,0,5,0,"0"""
"""2005/01/15",0:49:52,"""""Lasair TWO""""","""""LasairII-110""""",36043,"""""""""",.,"""""RICO""""",0,1,1,0,0,0:01:00,CM,0.02833,6,0.1,1699415,0.2,8544,0.3,0,0.5,0,1,0,5,0,"0"""
"""2005/01/15",0:50:52,"""""Lasair TWO""""","""""LasairII-110""""",36043,"""""""""",.,"""""RICO""""",0,1,1,0,0,0:01:00,CM,0.02831,6,0.1,1706616,0.2,8787,0.3,0,0.5,0,1,0,5,0,"0"""
"""2005/01/15",0:51:52,"""""Lasair TWO""""","""""LasairII-110""""",36043,"""""""""",.,"""""RICO""""",0,1,1,0,0,0:01:00,CM,0.02832,6,0.1,1724313,0.2,9792,0.3,0,0.5,0,1,0,5,0,"0"""
"""2005/01/15",0:52:52,"""""Lasair TWO""""","""""LasairII-110""""",36043,"""""""""",.,"""""RICO""""",0,1,1,0,0,0:01:00,CM,0.0283,6,0.1,1712893,0.2,9922,0.3,0,0.5,0,1,0,5,0,"0"""
"""2005/01/15",0:53:52,"""""Lasair TWO""""","""""LasairII-110""""",36043,"""""""""",.,"""""RICO""""",0,1,1,0,0,0:01:00,CM,0.02832,6,0.1,1720491,0.2,10429,0.3,0,0.5,0,1,0,5,0,"0"""
"""2005/01/15",0:54:52,"""""Lasair TWO""""","""""LasairII-110""""",36043,"""""""""",.,"""""RICO""""",0,1,1,0,0,0:01:00,CM,0.02832,6,0.1,1713227,0.2,9784,0.3,0,0.5,0,1,0,5,0,"0"""
"""2005/01/15",0:55:52,"""""Lasair TWO""""","""""LasairII-110""""",36043,"""""""""",.,"""""RICO""""",0,1,1,0,0,0:01:00,CM,0.02831,6,0.1,1701238,0.2,9415,0.3,0,0.5,0,1,0,5,0,"0"""
"""2005/01/15",0:56:52,"""""Lasair TWO""""","""""LasairII-110""""",36043,"""""""""",.,"""""RICO""""",0,1,1,0,0,0:01:00,CM,0.02832,6,0.1,1683692,0.2,8950,0.3,0,0.5,0,1,0,5,0,"0"""
"""2005/01/15",0:57:52,"""""Lasair TWO""""","""""LasairII-110""""",36043,"""""""""",.,"""""RICO""""",0,1,1,0,0,0:01:00,CM,0.02831,6,0.1,1670976,0.2,8468,0.3,0,0.5,0,1,0,5,0,"0"""
"""2005/01/15",0:58:52,"""""Lasair TWO""""","""""LasairII-110""""",36043,"""""""""",.,"""""RICO""""",0,1,1,0,0,0:01:00,CM,0.02832,6,0.1,1641185,0.2,8539,0.3,0,0.5,0,1,0,5,0,"0"""
"""2005/01/15",0:59:52,"""""Lasair TWO""""","""""LasairII-110""""",36043,"""""""""",.,"""""RICO""""",0,1,1,0,0,0:01:00,CM,0.02832,6,0.1,1637640,0.2,8300,0.3,0,0.5,0,1,0,5,0,"0"""
"""2005/01/15",1:00:52,"""""Lasair TWO""""","""""LasairII-110""""",36043,"""""""""",.,"""""RICO""""",0,1,1,0,0,0:01:00,CM,0.02831,6,0.1,1636712,0.2,8184,0.3,0,0.5,0,1,0,5,0,"0"""
"""2005/01/15",1:01:52,"""""Lasair TWO""""","""""LasairII-110""""",36043,"""""""""",.,"""""RICO""""",0,1,1,0,0,0:01:00,CM,0.02832,6,0.1,1627168,0.2,8067,0.3,0,0.5,0,1,0,5,0,"0"""
"""2005/01/15",1:02:52,"""""Lasair TWO""""","""""LasairII-110""""",36043,"""""""""",.,"""""RICO""""",0,1,1,0,0,0:01:00,CM,0.02832,6,0.1,1633724,0.2,8525,0.3,0,0.5,0,1,0,5,0,"0"""
"""2005/01/15",1:03:52,"""""Lasair TWO""""","""""LasairII-110""""",36043,"""""""""",.,"""""RICO""""",0,1,1,0,0,0:01:00,CM,0.02832,6,0.1,1650672,0.2,9051,0.3,0,0.5,0,1,0,5,0,"0"""
"""2005/01/15",1:04:52,"""""Lasair TWO""""","""""LasairII-110""""",36043,"""""""""",.,"""""RICO""""",0,1,1,0,0,0:01:00,CM,0.02831,6,0.1,1656410,0.2,9063,0.3,0,0.5,0,1,0,5,0,"0"""
"""2005/01/15",1:05:52,"""""Lasair TWO""""","""""LasairII-110""""",36043,"""""""""",.,"""""RICO""""",0,1,1,0,0,0:01:00,CM,0.02831,6,0.1,1657411,0.2,9088,0.3,0,0.5,0,1,0,5,0,"0"""
"""2005/01/15",1:06:52,"""""Lasair TWO""""","""""LasairII-110""""",36043,"""""""""",.,"""""RICO""""",0,1,1,0,0,0:01:00,CM,0.02832,6,0.1,1660528,0.2,9073,0.3,0,0.5,0,1,0,5,0,"0"""
"""2005/01/15",1:07:52,"""""Lasair TWO""""","""""LasairII-110""""",36043,"""""""""",.,"""""RICO""""",0,1,1,0,0,0:01:00,CM,0.02832,6,0.1,1658765,0.2,8966,0.3,0,0.5,0,1,0,5,0,"0"""
"""2005/01/15",1:08:52,"""""Lasair TWO""""","""""LasairII-110""""",36043,"""""""""",.,"""""RICO""""",0,1,1,0,0,0:01:00,CM,0.02831,6,0.1,1647987,0.2,8489,0.3,0,0.5,0,1,0,5,0,"0"""
"""2005/01/15",1:09:52,"""""Lasair TWO""""","""""LasairII-110""""",36043,"""""""""",.,"""""RICO""""",0,1,1,0,0,0:01:00,CM,0.02833,6,0.1,1623390,0.2,8286,0.3,0,0.5,0,1,0,5,0,"0"""
"""2005/01/15",1:10:52,"""""Lasair TWO""""","""""LasairII-110""""",36043,"""""""""",.,"""""RICO""""",0,1,1,0,0,0:01:00,CM,0.02831,6,0.1,1630465,0.2,8449,0.3,0,0.5,0,1,0,5,0,"0"""
"""2005/01/15",1:11:52,"""""Lasair TWO""""","""""LasairII-110""""",36043,"""""""""",.,"""""RICO""""",0,1,1,0,0,0:01:00,CM,0.02832,6,0.1,1626812,0.2,8522,0.3,0,0.5,0,1,0,5,0,"0"""
"""2005/01/15",1:12:52,"""""Lasair TWO""""","""""LasairII-110""""",36043,"""""""""",.,"""""RICO""""",0,1,1,0,0,0:01:00,CM,0.02831,6,0.1,1609649,0.2,8164,0.3,0,0.5,0,1,0,5,0,"0"""
"""2005/01/15",1:13:52,"""""Lasair TWO""""","""""LasairII-110""""",36043,"""""""""",.,"""""RICO""""",0,1,1,0,0,0:01:00,CM,0.02832,6,0.1,1588024,0.2,7374,0.3,0,0.5,0,1,0,5,0,"0"""
"""2005/01/15",1:14:52,"""""Lasair TWO""""","""""LasairII-110""""",36043,"""""""""",.,"""""RICO""""",0,1,1,0,0,0:01:00,CM,0.02832,6,0.1,1564945,0.2,6772,0.3,0,0.5,0,1,0,5,0,"0"""
"""2005/01/15",1:15:52,"""""Lasair TWO""""","""""LasairII-110""""",36043,"""""""""",.,"""""RICO""""",0,1,1,0,0,0:01:00,CM,0.02831,6,0.1,1567536,0.2,7146,0.3,0,0.5,0,1,0,5,0,"0"""
"""2005/01/15",1:16:52,"""""Lasair TWO""""","""""LasairII-110""""",36043,"""""""""",.,"""""RICO""""",0,1,1,0,0,0:01:00,CM,0.02831,6,0.1,1553479,0.2,7568,0.3,0,0.5,0,1,0,5,0,"0"""
"""2005/01/15",1:17:52,"""""Lasair TWO""""","""""LasairII-110""""",36043,"""""""""",.,"""""RICO""""",0,1,1,0,0,0:01:00,CM,0.02832,6,0.1,1551607,0.2,7853,0.3,0,0.5,0,1,0,5,0,"0"""
"""2005/01/15",1:18:52,"""""Lasair TWO""""","""""LasairII-110""""",36043,"""""""""",.,"""""RICO""""",0,1,1,0,0,0:01:00,CM,0.02832,6,0.1,1559706,0.2,8568,0.3,0,0.5,0,1,0,5,0,"0"""
"""2005/01/15",1:19:52,"""""Lasair TWO""""","""""LasairII-110""""",36043,"""""""""",.,"""""RICO""""",0,1,1,0,0,0:01:00,CM,0.02831,6,0.1,1557143,0.2,7804,0.3,0,0.5,0,1,0,5,0,"0"""
"""2005/01/15",1:20:52,"""""Lasair TWO""""","""""LasairII-110""""",36043,"""""""""",.,"""""RICO""""",0,1,1,0,0,0:01:00,CM,0.02831,6,0.1,1544174,0.2,7518,0.3,0,0.5,0,1,0,5,0,"0"""
"""2005/01/15",1:21:52,"""""Lasair TWO""""","""""LasairII-110""""",36043,"""""""""",.,"""""RICO""""",0,1,1,0,0,0:01:00,CM,0.02831,6,0.1,1537812,0.2,7243,0.3,0,0.5,0,1,0,5,0,"0"""
"""2005/01/15",1:22:52,"""""Lasair TWO""""","""""LasairII-110""""",36043,"""""""""",.,"""""RICO""""",0,1,1,0,0,0:01:00,CM,0.02832,6,0.1,1542229,0.2,7347,0.3,0,0.5,0,1,0,5,0,"0"""
"""2005/01/15",1:23:52,"""""Lasair TWO""""","""""LasairII-110""""",36043,"""""""""",.,"""""RICO""""",0,1,1,0,0,0:01:00,CM,0.02832,6,0.1,1545334,0.2,7660,0.3,0,0.5,0,1,0,5,0,"0"""
"""2005/01/15",1:24:52,"""""Lasair TWO""""","""""LasairII-110""""",36043,"""""""""",.,"""""RICO""""",0,1,1,0,0,0:01:00,CM,0.02832,6,0.1,1543104,0.2,7705,0.3,0,0.5,0,1,0,5,0,"0"""
"""2005/01/15",1:25:52,"""""Lasair TWO""""","""""LasairII-110""""",36043,"""""""""",.,"""""RICO""""",0,1,1,0,0,0:01:00,CM,0.02832,6,0.1,1542174,0.2,7603,0.3,0,0.5,0,1,0,5,0,"0"""
"""2005/01/15",1:26:52,"""""Lasair TWO""""","""""LasairII-110""""",36043,"""""""""",.,"""""RICO""""",0,1,1,0,0,0:01:00,CM,0.0283,6,0.1,1533626,0.2,7022,0.3,0,0.5,0,1,0,5,0,"0"""
"""2005/01/15",1:27:52,"""""Lasair TWO""""","""""LasairII-110""""",36043,"""""""""",.,"""""RICO""""",0,1,1,0,0,0:01:00,CM,0.02831,6,0.1,1560986,0.2,9008,0.3,0,0.5,0,1,0,5,0,"0"""
"""2005/01/15",1:28:52,"""""Lasair TWO""""","""""LasairII-110""""",36043,"""""""""",.,"""""RICO""""",0,1,1,0,0,0:01:00,CM,0.02832,6,0.1,1593545,0.2,9970,0.3,0,0.5,0,1,0,5,0,"0"""
"""2005/01/15",1:29:52,"""""Lasair TWO""""","""""LasairII-110""""",36043,"""""""""",.,"""""RICO""""",0,1,1,0,0,0:01:00,CM,0.02831,6,0.1,1606400,0.2,9831,0.3,0,0.5,0,1,0,5,0,"0"""
"""2005/01/15",1:30:52,"""""Lasair TWO""""","""""LasairII-110""""",36043,"""""""""",.,"""""RICO""""",0,1,1,0,0,0:01:00,CM,0.02832,6,0.1,1585781,0.2,8273,0.3,0,0.5,0,1,0,5,0,"0"""
"""2005/01/15",1:31:52,"""""Lasair TWO""""","""""LasairII-110""""",36043,"""""""""",.,"""""RICO""""",0,1,1,0,0,0:01:00,CM,0.02832,6,0.1,1554171,0.2,7682,0.3,0,0.5,0,1,0,5,0,"0"""
"""2005/01/15",1:32:52,"""""Lasair TWO""""","""""LasairII-110""""",36043,"""""""""",.,"""""RICO""""",0,1,1,0,0,0:01:00,CM,0.02832,6,0.1,1527567,0.2,7360,0.3,0,0.5,0,1,0,5,0,"0"""
"""2005/01/15",1:33:52,"""""Lasair TWO""""","""""LasairII-110""""",36043,"""""""""",.,"""""RICO""""",0,1,1,0,0,0:01:00,CM,0.02832,6,0.1,1519198,0.2,6937,0.3,0,0.5,0,1,0,5,0,"0"""
"""2005/01/15",1:34:52,"""""Lasair TWO""""","""""LasairII-110""""",36043,"""""""""",.,"""""RICO""""",0,1,1,0,0,0:01:00,CM,0.02832,6,0.1,1502186,0.2,6910,0.3,0,0.5,0,1,0,5,0,"0"""
"""2005/01/15",1:35:52,"""""Lasair TWO""""","""""LasairII-110""""",36043,"""""""""",.,"""""RICO""""",0,1,1,0,0,0:01:00,CM,0.02831,6,0.1,1482990,0.2,6732,0.3,0,0.5,0,1,0,5,0,"0"""
"""2005/01/15",1:36:52,"""""Lasair TWO""""","""""LasairII-110""""",36043,"""""""""",.,"""""RICO""""",0,1,1,0,0,0:01:00,CM,0.02832,6,0.1,1465660,0.2,6384,0.3,0,0.5,0,1,0,5,0,"0"""
"""2005/01/15",1:37:52,"""""Lasair TWO""""","""""LasairII-110""""",36043,"""""""""",.,"""""RICO""""",0,1,1,0,0,0:01:00,CM,0.02831,6,0.1,1469448,0.2,6042,0.3,0,0.5,0,1,0,5,0,"0"""
"""2005/01/15",1:38:52,"""""Lasair TWO""""","""""LasairII-110""""",36043,"""""""""",.,"""""RICO""""",0,1,1,0,0,0:01:00,CM,0.02832,6,0.1,1475207,0.2,6578,0.3,0,0.5,0,1,0,5,0,"0"""
"""2005/01/15",1:39:52,"""""Lasair TWO""""","""""LasairII-110""""",36043,"""""""""",.,"""""RICO""""",0,1,1,0,0,0:01:00,CM,0.02832,6,0.1,1465183,0.2,6381,0.3,0,0.5,0,1,0,5,0,"0"""
"""2005/01/15",1:40:52,"""""Lasair TWO""""","""""LasairII-110""""",36043,"""""""""",.,"""""RICO""""",0,1,1,0,0,0:01:00,CM,0.02832,6,0.1,1463279,0.2,6392,0.3,0,0.5,0,1,0,5,0,"0"""
"""2005/01/15",1:41:52,"""""Lasair TWO""""","""""LasairII-110""""",36043,"""""""""",.,"""""RICO""""",0,1,1,0,0,0:01:00,CM,0.02832,6,0.1,1469633,0.2,6077,0.3,0,0.5,0,1,0,5,0,"0"""
"""2005/01/15",1:42:52,"""""Lasair TWO""""","""""LasairII-110""""",36043,"""""""""",.,"""""RICO""""",0,1,1,0,0,0:01:00,CM,0.02832,6,0.1,1465165,0.2,5964,0.3,0,0.5,0,1,0,5,0,"0"""
"""2005/01/15",1:43:52,"""""Lasair TWO""""","""""LasairII-110""""",36043,"""""""""",.,"""""RICO""""",0,1,1,0,0,0:01:00,CM,0.02832,6,0.1,1470459,0.2,6400,0.3,0,0.5,0,1,0,5,0,"0"""
"""2005/01/15",1:44:52,"""""Lasair TWO""""","""""LasairII-110""""",36043,"""""""""",.,"""""RICO""""",0,1,1,0,0,0:01:00,CM,0.0283,6,0.1,1455810,0.2,7082,0.3,0,0.5,0,1,0,5,0,"0"""
"""2005/01/15",1:45:52,"""""Lasair TWO""""","""""LasairII-110""""",36043,"""""""""",.,"""""RICO""""",0,1,1,0,0,0:01:00,CM,0.02831,6,0.1,1479751,0.2,7661,0.3,0,0.5,0,1,0,5,0,"0"""
"""2005/01/15",1:46:52,"""""Lasair TWO""""","""""LasairII-110""""",36043,"""""""""",.,"""""RICO""""",0,1,1,0,0,0:01:00,CM,0.02832,6,0.1,1470424,0.2,7497,0.3,0,0.5,0,1,0,5,0,"0"""
"""2005/01/15",1:47:52,"""""Lasair TWO""""","""""LasairII-110""""",36043,"""""""""",.,"""""RICO""""",0,1,1,0,0,0:01:00,CM,0.02832,6,0.1,1476176,0.2,7458,0.3,0,0.5,0,1,0,5,0,"0"""
"""2005/01/15",1:48:52,"""""Lasair TWO""""","""""LasairII-110""""",36043,"""""""""",.,"""""RICO""""",0,1,1,0,0,0:01:00,CM,0.02831,6,0.1,1459276,0.2,6841,0.3,0,0.5,0,1,0,5,0,"0"""
"""2005/01/15",1:49:52,"""""Lasair TWO""""","""""LasairII-110""""",36043,"""""""""",.,"""""RICO""""",0,1,1,0,0,0:01:00,CM,0.02831,6,0.1,1466474,0.2,6852,0.3,0,0.5,0,1,0,5,0,"0"""
"""2005/01/15",1:50:52,"""""Lasair TWO""""","""""LasairII-110""""",36043,"""""""""",.,"""""RICO""""",0,1,1,0,0,0:01:00,CM,0.02831,6,0.1,1454968,0.2,6622,0.3,0,0.5,0,1,0,5,0,"0"""
"""2005/01/15",1:51:52,"""""Lasair TWO""""","""""LasairII-110""""",36043,"""""""""",.,"""""RICO""""",0,1,1,0,0,0:01:00,CM,0.02833,6,0.1,1441658,0.2,6760,0.3,0,0.5,0,1,0,5,0,"0"""
"""2005/01/15",1:52:52,"""""Lasair TWO""""","""""LasairII-110""""",36043,"""""""""",.,"""""RICO""""",0,1,1,0,0,0:01:00,CM,0.02831,6,0.1,1451552,0.2,6512,0.3,0,0.5,0,1,0,5,0,"0"""
"""2005/01/15",1:53:52,"""""Lasair TWO""""","""""LasairII-110""""",36043,"""""""""",.,"""""RICO""""",0,1,1,0,0,0:01:00,CM,0.02833,6,0.1,1448556,0.2,6929,0.3,0,0.5,0,1,0,5,0,"0"""
"""2005/01/15",1:54:52,"""""Lasair TWO""""","""""LasairII-110""""",36043,"""""""""",.,"""""RICO""""",0,1,1,0,0,0:01:00,CM,0.0283,6,0.1,1422312,0.2,6783,0.3,0,0.5,0,1,0,5,0,"0"""
"""2005/01/15",1:55:52,"""""Lasair TWO""""","""""LasairII-110""""",36043,"""""""""",.,"""""RICO""""",0,1,1,0,0,0:01:00,CM,0.02833,6,0.1,1416715,0.2,6620,0.3,0,0.5,0,1,0,5,0,"0"""
"""2005/01/15",1:56:52,"""""Lasair TWO""""","""""LasairII-110""""",36043,"""""""""",.,"""""RICO""""",0,1,1,0,0,0:01:00,CM,0.02831,6,0.1,1414086,0.2,6571,0.3,0,0.5,0,1,0,5,0,"0"""
"""2005/01/15",1:57:52,"""""Lasair TWO""""","""""LasairII-110""""",36043,"""""""""",.,"""""RICO""""",0,1,1,0,0,0:01:00,CM,0.02831,6,0.1,1414315,0.2,6401,0.3,0,0.5,0,1,0,5,0,"0"""
"""2005/01/15",1:58:52,"""""Lasair TWO""""","""""LasairII-110""""",36043,"""""""""",.,"""""RICO""""",0,1,1,0,0,0:01:00,CM,0.02832,6,0.1,1422229,0.2,6361,0.3,0,0.5,0,1,0,5,0,"0"""
"""2005/01/15",1:59:52,"""""Lasair TWO""""","""""LasairII-110""""",36043,"""""""""",.,"""""RICO""""",0,1,1,0,0,0:01:00,CM,0.02831,6,0.1,1405522,0.2,6526,0.3,0,0.5,0,1,0,5,0,"0"""
"""2005/01/15",2:00:52,"""""Lasair TWO""""","""""LasairII-110""""",36043,"""""""""",.,"""""RICO""""",0,1,1,0,0,0:01:00,CM,0.02831,6,0.1,1385779,0.2,6477,0.3,0,0.5,0,1,0,5,0,"0"""
"""2005/01/15",2:01:52,"""""Lasair TWO""""","""""LasairII-110""""",36043,"""""""""",.,"""""RICO""""",0,1,1,0,0,0:01:00,CM,0.02833,6,0.1,1385949,0.2,6708,0.3,0,0.5,0,1,0,5,0,"0"""
"""2005/01/15",2:02:52,"""""Lasair TWO""""","""""LasairII-110""""",36043,"""""""""",.,"""""RICO""""",0,1,1,0,0,0:01:00,CM,0.02832,6,0.1,1388755,0.2,6691,0.3,0,0.5,0,1,0,5,0,"0"""
"""2005/01/15",2:03:52,"""""Lasair TWO""""","""""LasairII-110""""",36043,"""""""""",.,"""""RICO""""",0,1,1,0,0,0:01:00,CM,0.02831,6,0.1,1379722,0.2,6601,0.3,0,0.5,0,1,0,5,0,"0"""